This is the latest recevied weather packets stored in our database for station/object K8GLX. If no packets are shown the sender has not sent any weather packets the latest 10 day(s).
| Time | Temp. | Humidity | Pressure | Rain* | Wind** | Luminosity | Snow |
|---|---|---|---|---|---|---|---|
| 1777295228 | 12.78° C | 66% | 1020.3 hPa | 0 mm | - | 200 W/m² | - |
| 1777294933 | 12.78° C | 67% | 1020.3 hPa | 0 mm | - | 247 W/m² | - |
| 1777294628 | 12.78° C | 67% | 1020.4 hPa | 0 mm | - | 268 W/m² | - |
| 1777294334 | 12.78° C | 67% | 1020.4 hPa | 0 mm | - | 263 W/m² | - |
| 1777294030 | 12.78° C | 67% | 1020.4 hPa | 0 mm | - | 282 W/m² | - |
| 1777293861 | 12.22° C | 68% | 1020.7 hPa | 0 mm | - | 291 W/m² | - |
| 1777293427 | 12.22° C | 69% | 1020.5 hPa | 0 mm | - | 277 W/m² | - |
| 1777293261 | 12.22° C | 69% | 1020.8 hPa | 0 mm | - | 249 W/m² | - |
| 1777292828 | 11.67° C | 70% | 1020.8 hPa | 0 mm | - | 229 W/m² | - |
| 1777292534 | 11.67° C | 71% | 1020.7 hPa | 0 mm | - | 211 W/m² | - |
| 1777292227 | 11.11° C | 72% | 1020.7 hPa | 0 mm | - | 189 W/m² | - |
| 1777291934 | 11.11° C | 73% | 1020.7 hPa | 0 mm | - | 170 W/m² | - |
| 1777291628 | 11.11° C | 73% | 1020.6 hPa | 0 mm | - | 152 W/m² | - |
| 1777291334 | 10.56° C | 74% | 1020.4 hPa | 0 mm | - | 129 W/m² | - |
| 1777291028 | 10.56° C | 75% | 1020.8 hPa | 0 mm | - | 106 W/m² | - |
| 1777290733 | 10.56° C | 75% | 1020.6 hPa | 0 mm | - | 84 W/m² | - |
| 1777290428 | 10.56° C | 76% | 1020.7 hPa | 0 mm | - | 70 W/m² | - |
| 1777290133 | 10° C | 76% | 1020.5 hPa | 0 mm | - | 61 W/m² | - |
| 1777289828 | 10° C | 76% | 1020.6 hPa | 0 mm | - | 55 W/m² | - |
| 1777289661 | 10° C | 77% | 1020.5 hPa | 0 mm | - | 50 W/m² | - |
| 1777289228 | 10° C | 77% | 1020.6 hPa | 0 mm | - | 46 W/m² | - |
| 1777288933 | 10° C | 77% | 1020.7 hPa | 0 mm | - | 41 W/m² | - |
| 1777288628 | 10° C | 78% | 1020.6 hPa | 0 mm | - | 37 W/m² | - |
| 1777288333 | 9.44° C | 78% | 1020.4 hPa | 0 mm | - | 33 W/m² | - |
| 1777288028 | 9.44° C | 78% | 1020.6 hPa | 0 mm | - | 29 W/m² | - |
* Rain latest hour (hover to see other rain measurements)
** Current wind speed in m/s (hover to see current wind gust speed)